Regional Weather Roundup
Issued by NWS Charleston, WV

Home | Current Version | Previous Version | Graphics & Text | Print | Product List | Glossary On
Versions: 1 2 3 4 5 6 7 8 9 10 11 12 13 14 15 16 17 18 19 20 21 22 23 24 25 26 27 28 29 30 31 32 33 34 35 36 37 38 39 40 41 42 43 44 45 46 47 48 49 50
000
ASUS41 KRLX 010510
RWRRLX
West Virginia Regional Weather Roundup
National Weather Service Charleston WV
1200 AM EST SUN FEB 01 2015

Note: "fair" indicates few or no clouds below 12,000 feet with no
significant weather and/or obstructions to visibility.

WVZ003-010600-
Northern Panhandle of West Virginia

CITY           SKY/WX    TMP DP  RH WIND       PRES   REMARKS
WHEELING       CLOUDY    27  16  63 SW6       30.21S
$$

WVZ009-010600-
Northwest West Virginia

CITY           SKY/WX    TMP DP  RH WIND       PRES   REMARKS
PARKERSBURG    CLOUDY    31  18  58 S3        30.27S
$$

WVZ006-010600-
Western West Virginia

CITY           SKY/WX    TMP DP  RH WIND       PRES   REMARKS
HUNTINGTON     CLOUDY    31  21  66 CALM      30.25F
$$

WVZ015-010600-
West Central West Virginia

CITY           SKY/WX    TMP DP  RH WIND       PRES   REMARKS
CHARLESTON     CLOUDY    30  21  69 CALM      30.25F
$$

WVZ022-031-010600-
North Central West Virginia

CITY           SKY/WX    TMP DP  RH WIND       PRES   REMARKS
CLARKSBURG     MOCLDY    26  16  65 CALM      30.23F
MORGANTOWN     PTCLDY    25  12  58 S5        30.23F
$$

WVZ025-035-042-045-010600-
Southern West Virginia

CITY           SKY/WX    TMP DP  RH WIND       PRES   REMARKS
BECKLEY        CLOUDY    31  11  43 SW6       30.21S
LOGAN          CLOUDY    32  14  47 CALM      30.23F
BLUEFIELD      CLOUDY    33  12  41 W6        30.21S
LEWISBURG      MOCLDY    31  10  42 S3        30.21S
$$

WVZ047-010600-
Northern Mountains of West Virginia

CITY           SKY/WX    TMP DP  RH WIND       PRES   REMARKS
ELKINS         MOCLDY    17  14  88 CALM      30.21F
$$

WVZ052-010600-
Eastern Panhandle of West Virginia

CITY           SKY/WX    TMP DP  RH WIND       PRES   REMARKS
MARTINSBURG    MOCLDY    22   8  55 CALM      30.25R
PETERSBURG     PTCLDY    26  13  56 CALM      30.23S
$$



USA.gov is the U.S. government's official web portal to all federal, state and local government web resources and services.